Regional Weather Roundup
Issued by NWS Charleston, SC

Current Version | Previous Version | Graphics & Text | Print | Product List | Glossary On
Versions: 1 2 3 4 5 6 7 8 9 10 11 12 13 14 15 16 17 18 19 20 21 22 23 24 25 26 27 28 29 30 31 32 33 34 35 36 37 38 39 40 41 42 43 44 45 46 47 48 49 50
000 ASUS42 KCHS 241727 RWRCHS REGIONAL WEATHER ROUNDUP NATIONAL WEATHER SERVICE CHARLESTON SC 100 PM EDT MON APR 24 2017 NOTE: "FAIR" INDICATES FEW OR NO CLOUDS BELOW 12,000 FEET WITH NO SIGNIFICANT WEATHER AND/OR OBSTRUCTIONS TO VISIBILITY. NOT ALL STATIONS ARE QUALITY CONTROLLED. USE DATA WITH CAUTION... ESPECIALLY DEWPOINT OBSERVATIONS. SCZ027-030-031-034>040-042>050-241800- ...SOUTHEAST SOUTH CAROLINA... CITY SKY/WX TMP DP RH WIND PRES REMARKS N CHARLESTON PTSUNNY 78 63 59 SE10 29.64F WATERFRONT PRK N/A 74 67 78 SE10 29.63F JOHNS ISLAND PTSUNNY 72 68 88 SE7G14 29.66S PINOPOLIS N/A 70 66 88 E9 29.59F MONCKS CORNER CLOUDY 72 64 78 SW12G17 29.68R SUMMERVILLE TSTM 64 63 94 SE6 29.66S BEAUFORT MCAS PTSUNNY 76 64 66 W15 29.66F BEAUFORT ARPT FAIR 77 63 61 SW14 29.65S HILTON HEAD IS MOSUNNY 75 61 60 SW14 29.67F WALTERBORO CLOUDY 72 66 83 W6 29.66R ALLENDALE PTSUNNY 72 64 78 VRB5 29.65F ...SOUTHERN MIDLANDS AND PEE DEE... CITY SKY/WX TMP DP RH WIND PRES REMARKS GEORGETOWN LGT RAIN 64 64 100 NE9 29.67F KINGSTREE CLOUDY N/A N/A N/A N7 29.69F ORANGEBURG LGT RAIN 64 62 93 NE6 29.67F BARNWELL CLOUDY 68 64 88 NW7 29.67F AIKEN CLOUDY 59 55 88 N15G22 29.73F MANNING CLOUDY 68 63 83 E17 29.68S COLUMBIA LGT RAIN 63 58 83 NE13 29.69F SUMTER CLOUDY 66 60 83 NE16 29.68F FLORENCE LGT RAIN 58 58 100 NE18G26 29.73F MYRTLE BEACH NOT AVBL N MYRTLE BEACH LGT RAIN 69 69 100 E9G17 29.69F $$ GAZ063-065-086>088-099>101-113>116-118-119-134>141-150-241800- ...SOUTHEAST GEORGIA... CITY SKY/WX TMP DP RH WIND PRES REMARKS SAVANNAH ARPT PTSUNNY 77 54 44 W14 29.67F HUNTER AAF MOSUNNY 77 61 56 W16 29.65F FORT STEWART MOSUNNY 73 52 46 W16 29.67F STATESBORO PTSUNNY 71 58 63 W12 29.68F SYLVANIA PTSUNNY N/A N/A N/A NW8G17 29.68F CLAXTON FAIR 71 56 58 S10G16 29.69F ...CSRA...CENTRAL AND FAR SOUTHEAST GEORGIA... CITY SKY/WX TMP DP RH WIND PRES REMARKS THOMSON CLOUDY 57 55 92 E5 29.77F AUGUSTA-BUSH CLOUDY 66 59 78 N12 29.69F AUGUSTA-DANIEL CLOUDY 63 55 75 N12G21 29.71F SWAINSBORO N/A 68 59 73 NW13 29.71F VIDALIA PTSUNNY 72 52 49 W10G18 29.71S EASTMAN CLOUDY 67 46 45 W9 29.75S HAZLEHURST PTSUNNY 70 56 59 W8G22 29.71F ALMA CLOUDY 67 53 61 W10 29.73S WAYCROSS CLOUDY 74 55 51 W14 29.72F JESUP PTSUNNY 73 46 38 W10G25 29.70F BAXLEY CLOUDY 68 55 64 W13 29.71F BRUNSWICK CLOUDY 75 59 57 W15G21 29.70F SAINT SIMONS PTSUNNY 75 53 46 W16 29.70F $$ SCZ027-028-034-036>038-045-046-048>050-GAZ119-141-241800- ...LAKE AND SUPPLEMENTAL COASTAL OBSERVATIONS... STATION/POSITION TIME TEMP WIND PRES WAVE SWELL AIR SEA DIR/SP/G HT/PER HT/PER/DIR (UTC) (F) (DEG/KT/KT) (MB) (FT/S) (FT/S/D) WINYAH BAY 1645 66 250/ 10 1006.0S LAKE MURRAY 1650 61 30/ 5/ 10 1005.4F ACE BASIN NERRS 1645 74 230/ 4 1004.0F FORT PULASKI 1700 72 75 290/ 11/ 15 1004.7 SAPELO ISLAND 1645 74 250/ 14 1005.0F $$ ANZ835-935-AMZ111-154-330-350-352-354-370-450-454-472-241800- ...C-MAN AND BUOY OBSERVATIONS... STATION/POSITION TIME TEMP WIND PRES WAVE SWELL AIR SEA DIR/SP/G HT/PER HT/PER/DIR (UTC) (F) (DEG/KT/KT) (MB) (FT/S) (FT/S/D) BUOY 41004 1710 69 73 150/ 12/ 16 1004.5 BUOY 41008 1650 70 72 240/ 16/ 17 1005.1F 4/ 7 3/ 90/ 7 FOLLY BEACH CMAN 1700 71 160/ 14/ 15 1005.2F CAPERS NEARSHORE 1708 72 72 150/ 12/ 17 1004.3F FRIPP NEARSHORE 1708 72 74 250/ 12/ 14 1004.1F STATION/POSITION TIME TEMP WIND PRES WAVE SWELL AIR SEA DIR/SP/G HT/PER HT/PER/DIR (UTC) (F) (DEG/KT/KT) (MB) (FT/S) (FT/S/D) 5E ST. MARYS GA 1700 73 N/A 3/ 8 2/ 90/13 FRYING PAN BUOY 1710 75 75 140/ 23/ 29 1005.4 BUOY 41025 1650 73 79 180/ 21/ 29 1010.6F 8/11 5/ 60/11 CAPE LOOKOUT NC 1700 69 110/ 18/ 20 1008.5F BUOY 41002 1650 70 75 110/ 23/ 31 1008.8F 7/ 6 2/ 60/12 BUOY 41010 1710 76 78 270/ 12/ 16 1006.3 ST AUGUSTINE FL 1700 75 75 250/ 12/ 14 1006.9F $$

USA.gov is the U.S. government's official web portal to all federal, state and local government web resources and services.